Change the Weather History Date:

Wednesday, September 4, 2013

  Actual Average Record
Temperature  
Mean Temperature 82 °F 65 °F  
Max Temperature 93 °F 79 °F 100 °F (1950)
Min Temperature 71 °F 52 °F 31 °F (1962)
Degree Days  
Heating Degree Days 0 3  
Month to date heating degree days 0 11  
Since 1 July heating degree days 0 48  
Cooling Degree Days 17 3  
Month to date cooling degree days 46 14  
Year to date cooling degree days 783 596  
Growing Degree Days 33 (Base 50)    
Moisture  
Dew Point 54 °F    
Average Humidity 40    
Maximum Humidity 53    
Minimum Humidity 26    
Precipitation  
Precipitation T in 0.04 in 0.54 in (1987)
Month to date precipitation T 0.14  
Year to date precipitation 8.18 10.19  
Snow  
Snow 0.00 in 0.00 in 0.00 in (2002)
Month to date snowfall 0.0 0.0  
Since 1 July snowfall T 0.0  
Since 1 September snowfall 0.0 0.0  
Snow Depth 0.00 in    
Sea Level Pressure  
Sea Level Pressure 29.98 in    
Wind  
Wind Speed 9 mph (SW)    
Max Wind Speed 21 mph    
Max Gust Speed 25 mph    
Visibility 10 miles    
Events      
T = Trace of Precipitation, MM = Missing Value Source: NWS Daily Summary

Daily Weather History Graph

Daily Weather History Graph

Search for Another Location

Airport or City:

Trip Planner

Search our weather history database for the weather conditions in past years. The results will help you decide how hot, cold, wet, or windy it might be!

Date:

Astronomy

Sep. 04, 2013 Rise Set
Actual Time 6:39 AM MDT 7:46 PM MDT
Civil Twilight 6:08 AM MDT 8:16 PM MDT
Nautical Twilight 5:32 AM MDT 8:52 PM MDT
Astronomical Twilight 4:53 AM MDT 9:31 PM MDT
Moon 5:54 AM MDT (9/4) 7:05 PM MDT (9/4)
Length of Visible Light 14h 07m
Length of Day
13h 06m
Waning Crescent, 1% of the Moon is Illuminated
Sep 4
Waning Crescent
Sep 5
New
Sep 12
First Quarter
Sep 19
Full
Sep 26
Last Quarter

Hourly Weather History & Observations

Time (MDT) Temp. Heat Index Dew Point Humidity Pressure Visibility Wind Dir Wind Speed Gust Speed Precip Events Conditions
12:53 AM 75.9 °F - 48.0 °F 37% 29.94 in 10.0 mi WSW 3.5 mph - N/A   Clear
1:53 AM 72.0 °F - 48.9 °F 44% 29.97 in 10.0 mi WSW 5.8 mph - N/A   Clear
2:53 AM 75.0 °F - 52.0 °F 44% 29.97 in 10.0 mi WNW 13.8 mph - N/A   Clear
3:53 AM 75.0 °F - 53.1 °F 46% 29.96 in 10.0 mi SW 6.9 mph - 0.00 in   Overcast
4:53 AM 73.0 °F - 54.0 °F 51% 29.97 in 10.0 mi WSW 12.7 mph - N/A   Scattered Clouds
5:53 AM 75.0 °F - 53.1 °F 46% 29.98 in 10.0 mi West 11.5 mph - N/A   Partly Cloudy
6:53 AM 73.9 °F - 54.0 °F 50% 29.98 in 10.0 mi WSW 15.0 mph - N/A   Mostly Cloudy
7:53 AM 75.0 °F - 55.0 °F 50% 30.01 in 10.0 mi West 12.7 mph - 0.00 in   Mostly Cloudy
8:53 AM 77.0 °F - 55.9 °F 48% 30.01 in 10.0 mi WSW 15.0 mph - N/A   Scattered Clouds
9:53 AM 77.0 °F - 57.0 °F 50% 30.03 in 10.0 mi WSW 12.7 mph - N/A   Mostly Cloudy
10:53 AM 79.0 °F - 57.9 °F 48% 30.03 in 10.0 mi SW 10.4 mph - N/A   Scattered Clouds
11:53 AM 84.0 °F 82.9 °F 55.0 °F 37% 30.01 in 10.0 mi SW 13.8 mph 20.7 mph N/A   Scattered Clouds
12:53 PM 86.0 °F 84.2 °F 54.0 °F 33% 29.99 in 10.0 mi SSW 11.5 mph - N/A   Scattered Clouds
1:53 PM 88.0 °F 85.9 °F 54.0 °F 31% 29.98 in 10.0 mi SSW 9.2 mph - N/A   Partly Cloudy
2:53 PM 91.0 °F 88.5 °F 53.1 °F 27% 29.96 in 10.0 mi Calm Calm - N/A   Scattered Clouds
3:53 PM 91.0 °F - 52.0 °F 26% 29.95 in 10.0 mi SSW 8.1 mph - N/A   Scattered Clouds
4:53 PM 90.0 °F - 52.0 °F 27% 29.94 in 10.0 mi NE 6.9 mph - N/A   Scattered Clouds
5:53 PM 89.1 °F - 51.1 °F 27% 29.95 in 10.0 mi East 3.5 mph - N/A   Scattered Clouds
6:53 PM 84.9 °F 83.2 °F 53.1 °F 33% 29.96 in 10.0 mi West 12.7 mph - N/A   Mostly Cloudy
7:53 PM 81.0 °F 80.8 °F 55.9 °F 42% 29.98 in 10.0 mi SW 9.2 mph - N/A   Mostly Cloudy
8:53 PM 77.0 °F - 57.0 °F 50% 30.00 in 10.0 mi SSW 9.2 mph - N/A   Scattered Clouds
9:53 PM 77.0 °F - 55.9 °F 48% 30.01 in 10.0 mi SW 6.9 mph - N/A   Partly Cloudy
10:53 PM 77.0 °F - 55.0 °F 47% 30.00 in 10.0 mi Calm Calm - N/A   Partly Cloudy
11:53 PM 73.9 °F - 55.9 °F 53% 29.99 in 10.0 mi SSW 5.8 mph - N/A   Clear